[[{"header":{"parameterUnit":"m.s-1","parameterCategory":1,"la1":30.2991,"la2":30.254,"lo1":-89.0895,"lo2":-89.0444,"dy":0.0017,"dx":0.0017,"nx":28,"ny":28,"refTime":"2024-09-29T03:00:00:Z","depth":0,"parameterNumber":2,"parameterNumberName":"U-component_of_WINDS"},"data":[0,0,0,0,0,0,0,0,0,0,0,0,0,0,0,0,0,0,0,0,0,0,0,0,0,0,0,0,0,0,0,0,0,0,0,0,0,0,0,0,0,0,0,0,0,0,0,0,0,0,0,0,0,0,0,0,0,0,2.785,2.7851,0,2.7929,2.793,2.793,2.7871,2.7869,2.7866,2.7864,2.7948,2.7952,2.7957,0,0,0,0,0,0,0,0,0,0,0,0,0,2.7652,2.7656,2.785,2.7851,2.7852,2.7929,2.793,2.7931,2.7872,2.7869,2.7865,2.7863,2.7946,2.7952,2.7957,0,0,0,0,0,0,0,0,0,0,0,0,0,2.7735,2.7657,2.785,2.7832,2.7831,2.7928,2.793,2.7931,2.7872,2.7869,2.7865,2.7861,2.7944,2.7951,2.7958,2.8079,0,0,2.7979,2.7982,0,0,0,0,0,0,0,0,2.773,2.7742,2.7833,2.7833,2.7832,2.7886,2.789,2.7981,2.7873,2.7857,2.7864,2.7859,2.7931,2.7938,2.7962,2.8083,2.8086,2.798,2.7984,2.7987,2.7989,0,0,0,0,0,0,0,2.7725,2.7739,2.7881,2.7835,2.7834,2.7821,2.7828,2.7907,2.7915,2.7858,2.7854,2.7864,2.793,2.7955,2.7963,2.8087,2.798,2.7986,2.799,2.7993,2.831,2.8314,0,0,0,0,0,0,2.772,2.7734,2.7879,2.7884,2.7771,2.7827,2.7836,2.7873,2.7914,2.7916,2.7867,2.7861,2.7945,2.7955,2.7966,2.8109,2.7987,2.7994,2.7998,2.8306,2.8311,2.8316,0,0,0,0,0,0,2.7716,2.7734,2.7876,2.7808,2.7825,2.7835,2.7877,2.7876,2.7902,2.792,2.7922,2.7892,2.7943,2.7956,2.8051,2.8111,2.7997,2.8003,2.8301,2.8308,2.8314,2.8396,0,0,0,0,0,0,2.7711,2.7732,2.7778,2.7809,2.7829,2.7958,2.7881,2.7881,2.7914,2.7906,2.7944,2.7946,2.7941,2.8041,2.8058,2.8118,2.8009,2.8296,2.8304,2.8312,2.8388,2.8404,2.8418,0,0,0,0,0,2.7704,2.7799,2.778,2.7798,2.7885,2.7962,2.7973,2.7963,2.7919,2.7965,2.7976,2.7945,2.8102,2.8051,2.8069,2.8133,2.8292,2.8302,2.8311,2.8381,2.8401,2.8418,0,0,0,0,0,0,2.7775,2.7802,2.7782,2.789,2.7924,2.7951,2.8009,2.7985,2.8033,2.8024,2.8011,2.8021,2.8119,2.8136,2.8078,2.8252,2.819,2.8204,2.8237,2.8256,2.8271,2.8264,2.8014,0,0,0,0,0,2.7803,2.7862,2.7883,2.7976,2.7994,2.7999,2.8032,2.8021,2.8056,2.8071,2.8089,2.8125,2.8183,2.8221,2.8274,2.8391,2.8398,2.8444,2.8459,2.8472,2.8483,2.8545,2.8565,2.8347,2.8347,2.8347,0,0,2.7862,2.7884,2.7922,2.7991,2.8016,2.8078,2.8011,2.808,2.8125,2.8081,2.8171,2.8186,2.8226,2.8331,2.8379,2.8348,2.8545,2.8484,2.8494,2.8498,2.8557,2.8578,2.8596,2.8354,2.8353,2.8352,0,0,2.8,2.8024,2.8103,2.8129,2.8167,2.817,2.8189,2.822,2.8228,2.8318,2.8286,2.8341,2.844,2.8469,2.8497,2.8647,2.8619,2.8665,2.8744,2.8805,2.8822,2.8837,2.8889,2.8908,2.8677,2.8677,2.8677,0,2.8069,2.8159,2.8147,2.8217,2.8248,2.8211,2.8291,2.8318,2.8372,2.8395,2.836,2.8483,2.8507,2.8618,2.8654,2.8679,2.87,2.866,2.882,2.8835,2.8849,2.8898,2.8918,2.8682,2.8682,2.8681,2.8681,0,2.8241,2.8304,2.8364,2.8416,2.8454,2.8529,2.8529,2.857,2.8556,2.8563,2.8655,2.8682,2.874,2.8767,2.8755,2.8877,2.8856,2.8821,2.8758,2.8875,2.8921,2.894,2.8689,2.8688,2.8686,2.8685,0,0,2.8425,2.8469,2.8491,2.8513,2.8553,2.8602,2.8676,2.8732,2.8766,2.8806,2.8867,2.8952,2.892,2.8951,2.8943,2.8997,2.9112,2.8955,2.8955,2.8981,2.9246,2.927,2.9292,2.9095,2.9098,2.9101,2.9242,0,2.8564,2.869,2.8681,2.8801,2.8859,2.8825,2.8889,2.8921,2.893,2.8981,2.8991,2.9051,2.9004,2.9023,2.9074,2.9087,2.9164,2.9077,2.9151,2.9154,2.914,2.9317,2.9343,2.9474,2.926,2.9263,2.9265,0,2.8742,2.8786,2.8911,2.8941,2.8965,2.9023,2.9073,2.9122,2.9158,2.9161,2.9196,2.9179,2.9254,2.9191,2.9295,2.9235,2.9266,2.9277,2.9282,2.9287,2.9215,2.9325,2.9516,2.9535,2.9294,2.9292,2.929,0,2.8861,2.8952,2.9038,2.9059,2.9097,2.9138,2.9156,2.9188,2.9222,2.9266,2.9288,2.9342,2.9371,2.9413,2.9411,2.9365,2.9516,2.9453,2.952,2.952,2.9551,2.9549,2.9748,2.9574,2.9574,2.9574,2.9573,0,2.9016,2.9094,2.9092,2.9145,2.9231,2.9221,2.9307,2.932,2.9349,2.9404,2.9379,2.9432,2.9427,2.9481,2.948,2.9565,2.958,2.9584,2.9582,2.9585,2.9584,2.9603,2.9593,2.9579,2.9578,2.9577,2.9576,0,2.9163,2.9165,2.9256,2.9285,2.9294,2.9356,2.938,2.943,2.9437,2.9507,2.9524,2.9534,2.9596,2.9599,2.9671,2.967,2.9773,2.9763,2.976,2.9758,2.9824,2.9817,3.004,3.0069,2.9879,2.988,2.9882,0,2.926,2.9319,2.9353,2.9387,2.9407,2.9464,2.9498,2.9491,2.9528,2.9573,2.9618,2.9677,2.9724,2.9824,2.9839,2.9894,2.9883,2.9958,2.9891,2.9892,2.9882,2.9878,2.9883,2.997,2.9973,2.9974,2.9976,0,2.9433,2.9431,2.948,2.953,2.9571,2.961,2.9647,2.9677,2.9675,2.9718,2.9779,2.9816,2.9888,2.9947,3.0,3.002,2.9998,2.9997,3.0015,3.0017,3.0012,3.0014,2.9794,2.9991,2.999,2.9989,2.9988,2.9987,2.9557,2.9606,2.9638,2.9693,2.972,2.9755,2.9803,2.9815,2.9866,2.9923,2.9917,2.9986,3.0021,3.0089,3.0113,3.0168,3.0142,3.0169,3.0175,3.0181,3.0187,3.0005,3.0178,3.0177,3.0177,3.0177,3.0176,0,2.9726,2.9744,2.9795,2.9846,2.9891,2.9865,2.9904,2.9943,3.0003,3.0037,3.0083,3.0154,3.0211,3.0231,3.0286,3.0326,3.0317,3.0341,3.0337,3.0342,3.0208,3.0186,3.0347,3.0347,3.0347,3.0347,3.0347,3.0347,2.9819,2.9901,2.9903,2.9999,3.0017,3.0083,3.0107,3.0139,3.0166,3.0246,3.0292,3.0304,3.0332,3.039,3.0441,3.0446,3.0467,3.0494,3.0494,3.0368,3.0351,3.0335,3.0314,3.0499,3.0499,3.0623,3.0624,3.0625]},{"header":{"parameterUnit":"m.s-1","parameterCategory":1,"la1":30.2991,"la2":30.254,"lo1":-89.0895,"lo2":-89.0444,"dy":0.0017,"dx":0.0017,"nx":28,"ny":28,"refTime":"2024-09-29T03:00:00:Z","depth":0,"parameterNumber":3,"parameterNumberName":"V-component_of_WINDS"},"data":[0,0,0,0,0,0,0,0,0,0,0,0,0,0,0,0,0,0,0,0,0,0,0,0,0,0,0,0,0,0,0,0,0,0,0,0,0,0,0,0,0,0,0,0,0,0,0,0,0,0,0,0,0,0,0,0,0,0,2.0595,2.0597,0,2.074,2.0742,2.0744,2.077,2.0769,2.0768,2.0767,2.0918,2.0923,2.0928,0,0,0,0,0,0,0,0,0,0,0,0,0,2.0343,2.0348,2.0595,2.0597,2.0599,2.074,2.0742,2.0744,2.0771,2.0769,2.0768,2.0766,2.0916,2.0922,2.0928,0,0,0,0,0,0,0,0,0,0,0,0,0,2.0467,2.0349,2.0595,2.0629,2.0634,2.074,2.0742,2.0745,2.0771,2.0769,2.0767,2.0766,2.0914,2.0921,2.0929,2.1012,0,0,2.0952,2.0956,0,0,0,0,0,0,0,0,2.046,2.0476,2.0622,2.0627,2.0632,2.0735,2.0709,2.0834,2.0771,2.0719,2.0767,2.0765,2.0859,2.0871,2.0902,2.1019,2.1025,2.0953,2.0958,2.0961,2.0963,0,0,0,0,0,0,0,2.0451,2.047,2.0653,2.0624,2.063,2.0638,2.0653,2.0733,2.0797,2.0723,2.0725,2.0742,2.0861,2.0894,2.0906,2.1028,2.0953,2.096,2.0964,2.0967,2.1221,2.1223,0,0,0,0,0,0,2.0436,2.0463,2.0648,2.0657,2.054,2.0644,2.0661,2.0704,2.0796,2.0808,2.0744,2.0743,2.0882,2.0897,2.0911,2.1016,2.0961,2.0968,2.0973,2.1219,2.1222,2.1224,0,0,0,0,0,0,2.0431,2.0453,2.0642,2.0561,2.0585,2.065,2.0698,2.0708,2.0741,2.0811,2.0823,2.0766,2.0881,2.09,2.0987,2.1021,2.0972,2.0979,2.1217,2.122,2.1223,2.1225,0,0,0,0,0,0,2.0424,2.0451,2.0482,2.0561,2.059,2.0715,2.07,2.0712,2.0754,2.0755,2.0835,2.0847,2.0881,2.0975,2.0994,2.1031,2.0985,2.1214,2.1218,2.1222,2.1222,2.1228,2.1232,0,0,0,0,0,2.0415,2.0477,2.0484,2.0506,2.0631,2.0717,2.0733,2.0771,2.0757,2.079,2.0835,2.0845,2.1014,2.0984,2.1006,2.1045,2.1212,2.1217,2.1222,2.122,2.1226,2.1232,0,0,0,0,0,0,2.0402,2.0488,2.0497,2.0587,2.0644,2.0721,2.0764,2.0777,2.084,2.0838,2.0882,2.09,2.0985,2.1023,2.0988,2.1131,2.1112,2.1121,2.1103,2.111,2.1115,2.1105,2.0991,0,0,0,0,0,2.0409,2.0472,2.0544,2.0616,2.0645,2.0699,2.0738,2.0762,2.0824,2.0849,2.09,2.096,2.1027,2.107,2.1135,2.1226,2.1246,2.1264,2.127,2.1274,2.1282,2.1335,2.1344,2.124,2.124,2.124,0,0,2.0426,2.0481,2.0518,2.0615,2.0663,2.0727,2.072,2.0788,2.0837,2.0859,2.0945,2.0984,2.1054,2.1144,2.1186,2.1178,2.1315,2.128,2.1282,2.1289,2.1341,2.135,2.1359,2.1243,2.1243,2.1242,0,0,2.049,2.0537,2.0603,2.065,2.0722,2.0758,2.0773,2.0849,2.0876,2.0961,2.098,2.1038,2.1152,2.1202,2.1242,2.1323,2.1335,2.1343,2.1372,2.1422,2.1431,2.1438,2.1469,2.148,2.1351,2.1351,2.1351,0,2.0502,2.0599,2.0636,2.0703,2.0746,2.0768,2.0836,2.0881,2.097,2.1,2.0989,2.1133,2.1182,2.1284,2.1304,2.1335,2.1355,2.1336,2.1426,2.1434,2.1442,2.1472,2.1484,2.1351,2.1351,2.1351,2.1351,0,2.0611,2.0678,2.0723,2.0809,2.0856,2.0924,2.0971,2.1015,2.1034,2.1071,2.1159,2.1217,2.1296,2.1321,2.134,2.1426,2.142,2.1417,2.14,2.1452,2.1481,2.1493,2.1352,2.1352,2.1352,2.1352,0,0,2.0674,2.0777,2.0793,2.0833,2.0913,2.0966,2.1034,2.111,2.1147,2.1208,2.1268,2.1363,2.1361,2.1407,2.1432,2.1476,2.1539,2.1468,2.1471,2.1481,2.1639,2.1643,2.1655,2.1546,2.1548,2.155,2.1634,0,2.0749,2.0871,2.0906,2.101,2.1073,2.1094,2.1154,2.121,2.1246,2.1306,2.1345,2.1413,2.1405,2.1432,2.1477,2.1522,2.1572,2.1516,2.1604,2.1607,2.1589,2.167,2.1674,2.1751,2.1646,2.1648,2.1649,0,2.0853,2.0915,2.1025,2.1098,2.1126,2.1179,2.1251,2.1307,2.1371,2.1394,2.1445,2.1465,2.1539,2.1515,2.1618,2.1579,2.1617,2.1644,2.1648,2.166,2.1633,2.1687,2.1776,2.1788,2.1667,2.1666,2.1664,0,2.089,2.1001,2.1082,2.1114,2.12,2.1237,2.1275,2.1337,2.138,2.1443,2.1472,2.1543,2.1583,2.1637,2.1677,2.1656,2.1777,2.1756,2.18,2.1799,2.1827,2.1825,2.1926,2.1847,2.1846,2.1846,2.1846,0,2.0972,2.1039,2.1099,2.1149,2.1226,2.1264,2.1339,2.1377,2.1432,2.1491,2.1513,2.1567,2.1615,2.1677,2.1708,2.1789,2.1806,2.1828,2.1836,2.1828,2.1826,2.1856,2.1852,2.1849,2.1849,2.1848,2.1847,0,2.1027,2.107,2.116,2.1233,2.1253,2.1306,2.137,2.142,2.1455,2.1529,2.1549,2.1606,2.1679,2.1723,2.1816,2.1837,2.1928,2.1932,2.1906,2.1911,2.1953,2.1949,2.2079,2.2099,2.2003,2.2004,2.2005,0,2.1078,2.113,2.1209,2.1249,2.1287,2.1352,2.1396,2.1436,2.1481,2.1558,2.1599,2.1673,2.1735,2.1851,2.1902,2.1973,2.1981,2.2022,2.1992,2.1983,2.1985,2.1983,2.1989,2.2028,2.2028,2.2029,2.203,0,2.1164,2.1183,2.1245,2.1315,2.1367,2.1425,2.1482,2.1514,2.1563,2.1613,2.1688,2.1736,2.183,2.1905,2.198,2.202,2.2034,2.2038,2.2052,2.2046,2.203,2.2042,2.1923,2.2035,2.2035,2.2034,2.2034,2.2034,2.1221,2.1269,2.1332,2.1401,2.1448,2.15,2.1551,2.1593,2.1656,2.1736,2.1755,2.1834,2.1898,2.2,2.2042,2.2105,2.2099,2.2119,2.2125,2.213,2.2132,2.2017,2.2118,2.2118,2.2118,2.2118,2.2118,0,2.131,2.1351,2.1414,2.1494,2.1548,2.1554,2.1618,2.1664,2.1733,2.179,2.185,2.1937,2.2009,2.2064,2.2139,2.2179,2.2187,2.2197,2.2196,2.2206,2.2132,2.2113,2.2189,2.2189,2.2189,2.2189,2.2189,2.2189,2.1364,2.1445,2.1471,2.1577,2.1618,2.1695,2.1731,2.178,2.1826,2.1922,2.1982,2.2017,2.2074,2.2152,2.2219,2.2234,2.2261,2.2271,2.2287,2.2218,2.221,2.2203,2.2186,2.2276,2.2276,2.2356,2.2356,2.2357]}]]